Page, AZ

4:19 PM MDT on May 27, 2018 (GMT -0600)
Page Municipal

Weather History for KPGA - January, 2014

Change the Weather History Date:

Friday, January 17, 2014

  Actual Average Record
Temperature  
Mean Temperature 40 °F -  
Max Temperature 52 °F 42 °F 60 °F (2011)
Min Temperature 28 °F 27 °F 6 °F (1963)
Degree Days  
Heating Degree Days 25    
Moisture  
Dew Point 14 °F    
Average Humidity 35    
Maximum Humidity 54    
Minimum Humidity 12    
Precipitation  
Precipitation 0.00 in - - ()
Sea Level Pressure  
Sea Level Pressure 30.28 in    
Wind  
Wind Speed 2 mph (SSW)    
Max Wind Speed 5 mph    
Max Gust Speed -    
Visibility 9 miles    
Events      
Averages and records for this station are not official NWS values.
T = Trace of Precipitation, MM = Missing Value Source: NWS Daily Summary

Daily Weather History Graph

Daily Weather History Graph

Search for Another Location

Airport or City:

Astronomy

Jan. 17, 2014 Rise Set
Actual Time 7:37 AM MST 5:35 PM MST
Civil Twilight 7:09 AM MST 6:03 PM MST
Nautical Twilight 6:37 AM MST 6:35 PM MST
Astronomical Twilight 6:06 AM MST 7:06 PM MST
Moon 7:21 PM MST (1/17) 8:10 AM MST (1/17)
Length of Visible Light 10h 54m
Length of Day
9h 57m
Full, 98% of the Moon is Illuminated
Jan 17
Full
Jan 23
Last Quarter
Jan 30
New
Feb 6
First Quarter
Feb 14
Full

Hourly Weather History & Observations

Time (MST) Temp. Windchill Dew Point Humidity Pressure Visibility Wind Dir Wind Speed Gust Speed Precip Events Conditions
12:53 AM 36.0 °F 32.1 °F 14.0 °F 41% 30.32 in 10.0 mi South 4.6 mph - N/A   Clear
1:53 AM 34.0 °F - 14.0 °F 44% 30.31 in 9.0 mi Calm Calm - N/A   Clear
2:53 AM 32.0 °F - 14.0 °F 48% 30.32 in 8.0 mi Calm Calm - N/A   Clear
3:53 AM 32.0 °F 28.7 °F 14.0 °F 48% 30.31 in 10.0 mi SW 3.5 mph - N/A   Clear
4:53 AM 30.0 °F - 14.0 °F 51% 30.33 in 10.0 mi Calm Calm - N/A   Clear
5:53 AM 30.9 °F - 12.9 °F 47% 30.34 in 10.0 mi Calm Calm - N/A   Clear
6:53 AM 28.9 °F 25.2 °F 14.0 °F 54% 30.36 in 8.0 mi WSW 3.5 mph - N/A   Clear
7:53 AM 30.0 °F 25.2 °F 14.0 °F 51% 30.37 in 10.0 mi SE 4.6 mph - N/A   Clear
8:53 AM 37.0 °F - 15.1 °F 41% 30.36 in 10.0 mi Calm Calm - N/A   Clear
9:53 AM 41.0 °F - 16.0 °F 36% 30.37 in 10.0 mi Calm Calm - N/A   Clear
10:53 AM 42.1 °F - 16.0 °F 35% 30.36 in 10.0 mi Calm Calm - N/A   Clear
11:53 AM 45.0 °F - 15.1 °F 30% 30.32 in 10.0 mi Calm Calm - N/A   Clear
12:53 PM 48.0 °F - 16.0 °F 28% 30.28 in 10.0 mi Calm Calm - N/A   Clear
1:53 PM 50.0 °F - 16.0 °F 26% 30.25 in 10.0 mi NNE 3.5 mph - N/A   Clear
2:53 PM 52.0 °F - 14.0 °F 22% 30.23 in 10.0 mi Calm Calm - N/A   Clear
3:53 PM 52.0 °F - 15.1 °F 23% 30.22 in 10.0 mi NE 3.5 mph - N/A   Clear
4:53 PM 50.0 °F - 12.9 °F 23% 30.22 in 10.0 mi Calm Calm - N/A   Clear
5:53 PM 45.0 °F - 12.9 °F 27% 30.23 in 10.0 mi Calm Calm - N/A   Clear
6:53 PM 42.1 °F 40.2 °F 12.0 °F 29% 30.23 in 7.0 mi SW 3.5 mph - N/A   Clear
7:53 PM 41.0 °F - 12.9 °F 32% 30.24 in 8.0 mi Calm Calm - N/A   Clear
8:53 PM 39.9 °F - 12.9 °F 33% 30.22 in 7.0 mi Calm Calm - N/A   Clear
9:53 PM 37.9 °F 34.4 °F 12.0 °F 35% 30.21 in 6.0 mi SW 4.6 mph - N/A   Haze
10:53 PM 37.0 °F - 12.0 °F 36% 30.22 in 10.0 mi Calm Calm - N/A   Clear
11:53 PM 36.0 °F - 12.0 °F 37% 30.22 in 10.0 mi Calm Calm - N/A   Clear